This is the latest recevied weather packets stored in our database for station/object KG4LKY-5. If no packets are shown the sender has not sent any weather packets the latest 10 day(s).
| Time | Temp. | Humidity | Pressure | Rain* | Wind** | Luminosity | Snow |
|---|---|---|---|---|---|---|---|
| 1777966613 | 15° C | 61% | 1012.3 hPa | 0 mm | - | - | - |
| 1777966312 | 16.11° C | 60% | 1012.3 hPa | 0 mm | - | - | - |
| 1777966012 | 15.56° C | 58% | 1012.3 hPa | 0 mm | - | - | - |
| 1777965409 | 16.11° C | 59% | 1012.4 hPa | 0 mm | - | - | - |
| 1777965109 | 16.11° C | 64% | 1012.3 hPa | 0 mm | - | - | - |
| 1777964809 | 15.56° C | 66% | 1012.4 hPa | 0 mm | - | - | - |
| 1777964509 | 16.11° C | 64% | 1012.4 hPa | 0 mm | - | - | - |
| 1777964208 | 15.56° C | 66% | 1012.4 hPa | 0 mm | - | - | - |
| 1777963943 | 15.56° C | 62% | 1012.4 hPa | 0 mm | - | - | - |
| 1777963908 | 15.56° C | 62% | 1012.4 hPa | 0 mm | - | - | - |
| 1777963607 | 16.11° C | 64% | 1012.4 hPa | 0 mm | - | - | - |
| 1777963307 | 15° C | 67% | 1012.4 hPa | 0 mm | - | - | - |
| 1777963007 | 16.11° C | 65% | 1012.5 hPa | 0 mm | - | - | - |
| 1777962406 | 16.67° C | 60% | 1012.6 hPa | 0 mm | - | - | - |
| 1777962106 | 16.67° C | 57% | 1012.7 hPa | 0 mm | - | - | - |
| 1777961505 | 16.67° C | 57% | 1012.6 hPa | 0 mm | - | - | - |
| 1777961205 | 16.67° C | 61% | 1012.6 hPa | 0 mm | - | - | - |
| 1777960905 | 16.11° C | 60% | 1012.6 hPa | 0 mm | - | - | - |
| 1777960604 | 16.67° C | 60% | 1012.6 hPa | 0 mm | - | - | - |
| 1777960304 | 16.11° C | 63% | 1012.5 hPa | 0 mm | - | - | - |
| 1777960004 | 16.11° C | 63% | 1012.5 hPa | 0 mm | - | - | - |
| 1777959704 | 17.22° C | 59% | 1012.5 hPa | 0 mm | - | - | - |
| 1777959403 | 16.67° C | 58% | 1012.5 hPa | 0 mm | - | - | - |
| 1777959103 | 16.11° C | 63% | 1012.4 hPa | 0 mm | - | - | - |
| 1777958803 | 16.11° C | 63% | 1012.3 hPa | 0 mm | - | - | - |
* Rain since midnight (hover to see other rain measurements)
** Current wind speed in m/s (hover to see current wind gust speed)